Find Starlink 1265

NORAD ID: 45406 Int'l Des: 2020-019 Owner: SPXS Country: US Constellation: starlink operational
LEOCIRCULAR

当前视图

正在加载3D地球...

About Starlink 1265

Starlink 1265 (NORAD 45406) is a starlink constellation satellite (v1.0) launched Mar 18, 2020 by SPXS of US. It operates in LEO, CIRCULAR orbit with a mass of 260.00 kg.

即将过境

Passes for default location (London). Set your location on the main map for personalized predictions.

高度历史

Loading altitude history...

两行轨道根数

1 45406U 20019AY 26263.59780483 .00036733 00000-0 68112-3 0 9997
2 45406 53.1509 291.8290 0005027 19.8745 340.2459 15.48631318359984
Epoch: Sep 20, 2026 • Age: 7 hours

当前状态

高度 440.5 km
远地点 / 近地点 N/A
速度 7.65 km/s
星下点 -52.51°S, 138.12°W
发射日期 Mar 18, 2020
运行时间 6.5 years
类型 internet

技术详情

分类 Payload
质量 260.00 kg
干质量 248.00 kg
长度 0.20 m
跨度 9.00 m
形状 ? Box + pan
制造商 SPXS
平台类型 Starlink
阶段状态 In Orbit
所有者/国家 SPXS/US

Most Searched